Location: Pedholt
(56.0260°N, 10.2097°E)
Time: 05:56:07
(UTC+00:00)

NPP - Pass Details

Date: 14 July 2020
Orbit: 826 x 828 km, 98.7° (Epoch: 14 August)

Event Time Altitude Azimuth Distance (km) Brightness Sun altitude
Rises 01:15:22 0° 17° (NNE) 3,382 9.0 -8.9°
Reaches altitude 10° 01:17:44 10° 19° (NNE) 2,444 7.8 -8.8°
Maximum altitude 01:23:10 75° 105° (ESE) 863 3.8 -8.4°
Drops below altitude 10° 01:28:32 10° 191° (S) 2,426 5.5 -8.1°
Enters shadow 01:28:52 - 191° (SSW) 2,553 5.6 -8.0°
